Torna al catalogo

OPS 0856 DEB

LostPO
NORAD 23821·DEBRIS·🇺🇸 United States

Lanciato Aug 19, 1966 da Vandenberg Space Force Base

Loading…

Prossimi Passaggi (prossime 24 ore)

TLE

ObsoletoSource: Space-Track

Epoca: Nov 2, 2013, 21:56 UTC

1 23821U 66077E   13306.91397687  .00000027  00000-0  47769-2 0  9999
2 23821 089.4704 284.4916 1350430 330.8544 022.5549 08.70867560493197

Traccia OPS 0856 DEB in tempo reale con AllMySat

Download on the App Store